Weather History for Bad Axe, MI

Change the Weather History Date:

Tuesday, October 23, 2012

  Actual Average (KP58) Record (KP58)
Temperature  
Mean Temperature 56 °F -  
Max Temperature 59 °F 55 °F 78 °F (2000)
Min Temperature 53 °F 41 °F 36 °F (1997)
Degree Days  
Heating Degree Days 9    
Growing Degree Days 6 (Base 50)    
Moisture  
Dew Point 56 °F    
Average Humidity 100    
Maximum Humidity 100    
Minimum Humidity 98    
Precipitation  
Precipitation 0.00 in - - ()
Sea Level Pressure  
Sea Level Pressure 29.97 in    
Wind  
Wind Speed 3 mph (East)    
Max Wind Speed 9 mph    
Max Gust Speed -    
Visibility 2 miles    
Events Fog , Rain    
Averages and records for this station are not official NWS values.
T = Trace of Precipitation, MM = Missing Value Source: NWS Daily Summary

Daily Weather History Graph

Daily Weather History Graph

Search for Another Location

Airport:

Trip Planner

Search our weather history database for the weather conditions in past years. The results will help you decide how hot, cold, wet, or windy it might be!

Date:

Astronomy

Oct. 23, 2012 Rise Set
Actual Time 7:56 AM EDT 6:34 PM EDT
Civil Twilight 7:27 AM EDT 7:04 PM EDT
Nautical Twilight 6:53 AM EDT 7:37 PM EDT
Astronomical Twilight 6:20 AM EDT 8:10 PM EDT
Moon 3:27 PM EDT (10/23) 1:36 AM EDT (10/23)
Length of Visible Light 11h 36m
Length of Day
10h 37m
Waxing Gibbous, 66% of the Moon is Illuminated
Oct 23
Waxing Gibbous
Oct 29
Full
Nov 6
Last Quarter
Nov 13
New
Nov 20
First Quarter

Hourly Weather History & Observations

Time (EDT) Temp. Dew Point Humidity Pressure Visibility Wind Dir Wind Speed Gust Speed Precip Events Conditions
12:13 AM 56.8 °F 56.3 °F 98% 29.99 in 3.0 mi South 3.5 mph - N/A Rain Rain
12:33 AM 57.0 °F 56.7 °F 99% 30.00 in 2.5 mi South 4.6 mph - N/A Rain Rain
12:53 AM 57.2 °F 56.7 °F 98% 29.99 in 2.5 mi Calm Calm - N/A Rain Light Rain
1:13 AM 57.2 °F 56.8 °F 99% 29.99 in 3.0 mi Calm Calm - N/A Rain Rain
1:33 AM 57.0 °F 56.7 °F 99% 29.99 in 4.0 mi SSE 3.5 mph - N/A Rain Rain
1:53 AM 56.8 °F 56.7 °F 99% 29.97 in 4.0 mi ESE 4.6 mph - N/A Rain Heavy Rain
2:13 AM 56.7 °F 56.3 °F 99% 29.97 in 3.0 mi ESE 3.5 mph - N/A Rain Heavy Rain
2:33 AM 56.5 °F 56.3 °F 99% 29.97 in 3.0 mi SE 3.5 mph - N/A Rain Heavy Rain
2:53 AM 56.3 °F 55.9 °F 99% 29.96 in 3.0 mi SE 3.5 mph - N/A Rain Rain
3:14 AM 56.3 °F 56.3 °F 100% 29.96 in 4.0 mi SE 4.6 mph - N/A   Drizzle
3:33 AM 56.3 °F 55.9 °F 99% 29.95 in 3.0 mi East 5.8 mph - N/A Rain Rain
3:53 AM 56.3 °F 56.3 °F 100% 29.94 in 2.0 mi East 4.6 mph - N/A Rain Rain
4:13 AM 56.5 °F 56.5 °F 100% 29.93 in 2.0 mi East 4.6 mph - N/A Rain Rain
4:33 AM 56.5 °F 56.5 °F 100% 29.93 in 2.0 mi East 3.5 mph - N/A Rain Light Rain
4:53 AM 56.7 °F 56.7 °F 100% 29.92 in 2.0 mi East 4.6 mph - N/A Rain Rain
5:13 AM 56.8 °F 56.8 °F 100% 29.92 in 1.8 mi Calm Calm - N/A   Drizzle
5:33 AM 57.2 °F 57.2 °F 100% 29.93 in 2.0 mi Calm Calm - N/A Rain Rain
5:54 AM 57.2 °F 57.2 °F 100% 29.93 in 2.5 mi Calm Calm - N/A Rain Rain
6:13 AM 56.8 °F 56.8 °F 100% 29.93 in 3.0 mi Calm Calm - N/A   Drizzle
6:33 AM 56.7 °F 56.7 °F 100% 29.93 in 3.0 mi East 3.5 mph - N/A   Light Drizzle
6:54 AM 56.7 °F 56.7 °F 100% 29.93 in 3.0 mi Calm Calm - N/A   Light Drizzle
7:33 AM 56.7 °F 56.7 °F 100% 29.94 in 3.0 mi Calm Calm - N/A   Light Drizzle
7:54 AM 56.8 °F 56.8 °F 100% 29.95 in 2.5 mi Calm Calm - N/A   Light Drizzle
8:13 AM 56.7 °F 56.7 °F 100% 29.95 in 2.0 mi NNE 5.8 mph - N/A   Overcast
8:33 AM 56.5 °F 56.5 °F 100% 29.94 in 1.2 mi NE 8.1 mph - N/A   Overcast
8:54 AM 55.9 °F 55.9 °F 100% 29.95 in 2.0 mi NE 9.2 mph - N/A   Overcast
9:13 AM 55.8 °F 55.8 °F 100% 29.95 in 2.0 mi NE 8.1 mph - N/A   Overcast
9:33 AM 55.6 °F 55.6 °F 100% 29.95 in 2.0 mi ENE 6.9 mph - N/A   Overcast
9:54 AM 55.8 °F 55.8 °F 100% 29.95 in 1.5 mi ENE 8.1 mph - N/A   Overcast
10:13 AM 56.1 °F 56.1 °F 100% 29.95 in 1.2 mi East 5.8 mph - N/A   Overcast
10:33 AM 56.3 °F 56.3 °F 100% 29.96 in 1.0 mi ENE 5.8 mph - N/A   Overcast
11:13 AM 57.6 °F 57.6 °F 100% 29.95 in 0.5 mi ENE 4.6 mph - N/A Fog Fog
11:53 AM 57.7 °F 57.7 °F 100% 29.99 in 1.2 mi Calm Calm - N/A   Overcast
12:13 PM 58.1 °F 58.1 °F 100% 29.99 in 1.0 mi Calm Calm - N/A   Overcast
12:34 PM 58.3 °F 58.3 °F 100% 29.98 in 1.2 mi Calm Calm - N/A   Overcast
12:53 PM 58.5 °F 58.5 °F 100% 29.97 in 1.5 mi Calm Calm - N/A   Overcast
1:14 PM 59.2 °F 59.2 °F 100% 29.96 in 1.5 mi NNE 3.5 mph - N/A   Overcast
1:34 PM 59.0 °F 59.0 °F 100% 29.97 in 1.2 mi Calm Calm - N/A   Overcast
1:53 PM 59.0 °F 59.0 °F 100% 29.97 in 1.0 mi Calm Calm - N/A   Overcast
2:14 PM 59.0 °F 59.0 °F 100% 29.97 in 1.0 mi Calm Calm - N/A   Overcast
2:33 PM 59.4 °F 59.4 °F 100% 29.97 in 1.0 mi Calm Calm - N/A   Overcast
2:54 PM 59.0 °F 59.0 °F 100% 29.97 in 0.8 mi Calm Calm - N/A   Overcast
3:14 PM 59.2 °F 59.2 °F 100% 29.97 in 1.2 mi Calm Calm - N/A   Overcast
3:33 PM 59.2 °F 59.2 °F 100% 29.96 in 1.5 mi ENE 5.8 mph - N/A   Overcast
3:54 PM 58.1 °F 58.1 °F 100% 29.96 in 1.0 mi ENE 6.9 mph - N/A   Overcast
4:14 PM 56.8 °F 56.8 °F 100% 29.97 in 1.2 mi East 6.9 mph - N/A   Overcast
4:33 PM 56.5 °F 56.5 °F 100% 29.97 in 1.2 mi East 6.9 mph - N/A   Overcast
4:54 PM 55.8 °F 55.8 °F 100% 29.97 in 1.0 mi East 4.6 mph - N/A   Overcast
5:14 PM 55.4 °F 55.4 °F 100% 29.97 in 0.5 mi ESE 4.6 mph - N/A Fog Fog
5:33 PM 55.0 °F 55.0 °F 100% 29.97 in 0.5 mi East 5.8 mph - N/A Fog Fog
5:54 PM 54.7 °F 54.7 °F 100% 29.99 in 0.5 mi Calm Calm - N/A Fog Fog
6:14 PM 54.5 °F 54.5 °F 100% 29.99 in 0.5 mi East 4.6 mph - N/A Fog Fog
6:33 PM 54.5 °F 54.5 °F 100% 30.00 in 0.5 mi ESE 4.6 mph - N/A Fog Fog
6:54 PM 54.1 °F 54.1 °F 100% 30.00 in 1.0 mi East 4.6 mph - N/A   Overcast
7:14 PM 54.1 °F 54.1 °F 100% 30.01 in 1.0 mi East 3.5 mph - N/A   Overcast
7:33 PM 54.0 °F 54.0 °F 100% 30.01 in 1.2 mi East 6.9 mph - N/A   Overcast
7:54 PM 54.0 °F 54.0 °F 100% 30.01 in 1.5 mi ESE 4.6 mph - N/A   Overcast
8:13 PM 54.0 °F 54.0 °F 100% 30.02 in 1.2 mi ESE 4.6 mph - N/A   Overcast
8:34 PM 54.0 °F 54.0 °F 100% 30.03 in 1.5 mi ESE 3.5 mph - N/A   Overcast
8:54 PM 54.0 °F 54.0 °F 100% 30.04 in 1.5 mi East 3.5 mph - N/A   Overcast
9:13 PM 54.0 °F 54.0 °F 100% 30.03 in 1.5 mi ESE 3.5 mph - N/A   Overcast
9:34 PM 54.0 °F 54.0 °F 100% 30.02 in 1.8 mi ENE 5.8 mph - N/A   Overcast
9:54 PM 53.8 °F 53.8 °F 100% 30.02 in 1.8 mi ESE 3.5 mph - N/A   Overcast
10:14 PM 53.8 °F 53.8 °F 100% 30.02 in 1.5 mi East 5.8 mph - N/A   Overcast
10:34 PM 53.6 °F 53.6 °F 100% 30.02 in 1.0 mi East 5.8 mph - N/A   Overcast
10:54 PM 53.6 °F 53.6 °F 100% 30.01 in 1.0 mi East 8.1 mph - N/A Rain Light Rain
11:34 PM 53.6 °F 53.6 °F 100% 30.02 in 1.2 mi ESE 5.8 mph - N/A   Overcast
11:53 PM 53.6 °F 53.6 °F 100% 30.02 in 1.8 mi ESE 4.6 mph - N/A   Light Drizzle